• Em Portugal
  • Lista de países
  • Para 7 dias
  • Temperatura da água
  • Mapas de satélite
  • Mapa do tempo
  • Widgets de tempo
  • user-avatar
    Iniciar Sessão

    Previsão horária em Mangush

    Hoje, 19 Outubro, Sexta-feira

    Tempo Temperatura Precipitação Vento Pressão Humidade
    00:00 +15°C° 0 mm 5 m/s 758 mmHg 63%
    01:00 +14°C° 0 mm 5 m/s 758 mmHg 65%
    02:00 +14°C° 0 mm 5 m/s 758 mmHg 68%
    03:00 +14°C° 0 mm 5 m/s 757 mmHg 71%
    04:00 +13°C° 0 mm 5 m/s 757 mmHg 74%
    05:00 +13°C° 0 mm 5 m/s 757 mmHg 77%
    06:00 +14°C° 0 mm 5 m/s 757 mmHg 74%
    07:00 +14°C° 0 mm 5 m/s 757 mmHg 72%
    08:00 +15°C° 0 mm 6 m/s 757 mmHg 69%
    09:00 +16°C° 0 mm 5 m/s 757 mmHg 65%
    10:00 +17°C° 0 mm 5 m/s 756 mmHg 61%
    11:00 +20°C° 0 mm 5 m/s 756 mmHg 57%
    12:00 +20°C° 0 mm 4 m/s 756 mmHg 56%
    13:00 +20°C° 0 mm 4 m/s 756 mmHg 54%
    14:00 +21°C° 0 mm 3 m/s 756 mmHg 53%
    15:00 +20°C° 0 mm 2 m/s 756 mmHg 57%
    16:00 +19°C° 0 mm 1 m/s 755 mmHg 62%
    17:00 +18°C° 0 mm 1 m/s 755 mmHg 66%
    18:00 +18°C° 0 mm 1 m/s 755 mmHg 68%
    19:00 +16°C° 0 mm 1 m/s 755 mmHg 70%
    20:00 +16°C° 0 mm 1 m/s 755 mmHg 72%
    21:00 +15°C° 0 mm 1 m/s 755 mmHg 74%
    22:00 +15°C° 0 mm 1 m/s 755 mmHg 75%
    23:00 +15°C° 0 mm 2 m/s 755 mmHg 77%

    Amanhã, 20 Outubro, Sábado

    Tempo Temperatura Precipitação Vento Pressão Humidade
    00:00 +15°C° 0 mm 2 m/s 755 mmHg 78%
    01:00 +14°C° 0 mm 2 m/s 755 mmHg 79%
    02:00 +14°C° 0 mm 2 m/s 755 mmHg 80%
    03:00 +14°C° 0 mm 2 m/s 755 mmHg 80%
    04:00 +14°C° 0 mm 2 m/s 754 mmHg 81%
    05:00 +13°C° 0 mm 2 m/s 754 mmHg 81%
    06:00 +14°C° 0 mm 2 m/s 755 mmHg 76%
    07:00 +15°C° 0 mm 2 m/s 755 mmHg 72%
    08:00 +16°C° 0 mm 1 m/s 755 mmHg 67%
    09:00 +19°C° 0 mm 1 m/s 755 mmHg 62%
    10:00 +19°C° 0 mm 2 m/s 755 mmHg 56%
    11:00 +21°C° 0 mm 2 m/s 755 mmHg 51%
    12:00 +21°C° 0 mm 2 m/s 755 mmHg 49%
    13:00 +23°C° 0 mm 2 m/s 755 mmHg 46%
    14:00 +22°C° 0 mm 3 m/s 754 mmHg 44%
    15:00 +21°C° 0 mm 3 m/s 754 mmHg 48%
    16:00 +20°C° 0 mm 3 m/s 754 mmHg 52%
    17:00 +19°C° 0 mm 3 m/s 754 mmHg 57%
    18:00 +18°C° 0 mm 2 m/s 754 mmHg 59%
    19:00 +18°C° 0 mm 2 m/s 754 mmHg 61%
    20:00 +17°C° 0 mm 2 m/s 754 mmHg 62%
    21:00 +17°C° 0 mm 2 m/s 754 mmHg 64%
    22:00 +16°C° 0 mm 2 m/s 754 mmHg 65%
    23:00 +16°C° 0 mm 2 m/s 754 mmHg 66%

    Depois de amanhã, 21 Outubro, Domingo

    Tempo Temperatura Precipitação Vento Pressão Humidade
    00:00 +16°C° 0 mm 2 m/s 754 mmHg 68%
    01:00 +15°C° 0 mm 1 m/s 754 mmHg 69%
    02:00 +15°C° 0 mm 1 m/s 754 mmHg 70%
    03:00 +15°C° 0 mm 1 m/s 754 mmHg 72%
    04:00 +15°C° 0 mm 1 m/s 754 mmHg 73%
    05:00 +15°C° 0 mm 1 m/s 754 mmHg 74%
    06:00 +15°C° 0.1 mm 1 m/s 754 mmHg 73%
    07:00 +15°C° 0.1 mm 1 m/s 754 mmHg 72%
    08:00 +16°C° 0.1 mm 1 m/s 754 mmHg 71%
    09:00 +18°C° 0.1 mm 1 m/s 754 mmHg 68%
    10:00 +19°C° 0.1 mm 1 m/s 754 mmHg 65%
    11:00 +18°C° 0.1 mm 2 m/s 754 mmHg 62%
    12:00 +19°C° 0.1 mm 2 m/s 754 mmHg 62%
    13:00 +19°C° 0.1 mm 2 m/s 754 mmHg 62%
    14:00 +19°C° 0.1 mm 2 m/s 754 mmHg 62%
    15:00 +18°C° 0 mm 2 m/s 754 mmHg 67%
    16:00 +17°C° 0 mm 2 m/s 754 mmHg 72%
    17:00 +16°C° 0 mm 2 m/s 754 mmHg 77%
    18:00 +15°C° 0 mm 2 m/s 754 mmHg 80%
    19:00 +15°C° 0 mm 2 m/s 755 mmHg 83%
    20:00 +14°C° 0 mm 2 m/s 755 mmHg 86%
    21:00 +14°C° 0 mm 2 m/s 755 mmHg 87%
    22:00 +14°C° 0 mm 2 m/s 754 mmHg 88%
    23:00 +14°C° 0 mm 2 m/s 754 mmHg 88%

    22 Outubro, Segunda-feira

    Tempo Temperatura Precipitação Vento Pressão Humidade
    00:00 +14°C° 0 mm 2 m/s 754 mmHg 88%
    01:00 +12°C° 0 mm 3 m/s 754 mmHg 88%
    02:00 +12°C° 0 mm 3 m/s 754 mmHg 88%
    03:00 +12°C° 0 mm 3 m/s 754 mmHg 88%
    04:00 +12°C° 0 mm 4 m/s 754 mmHg 88%
    05:00 +12°C° 0 mm 4 m/s 754 mmHg 88%
    06:00 +13°C° 0 mm 4 m/s 754 mmHg 85%
    07:00 +14°C° 0 mm 4 m/s 754 mmHg 81%
    08:00 +14°C° 0 mm 5 m/s 754 mmHg 78%
    09:00 +15°C° 0.4 mm 4 m/s 754 mmHg 77%
    10:00 +17°C° 0.4 mm 4 m/s 754 mmHg 76%
    11:00 +17°C° 0.4 mm 4 m/s 754 mmHg 76%
    12:00 +17°C° 1.9 mm 4 m/s 754 mmHg 79%
    13:00 +17°C° 1.9 mm 3 m/s 753 mmHg 83%
    14:00 +16°C° 1.9 mm 3 m/s 753 mmHg 87%
    15:00 +16°C° 2.2 mm 3 m/s 753 mmHg 89%
    16:00 +16°C° 2.2 mm 2 m/s 753 mmHg 91%
    17:00 +15°C° 2.2 mm 2 m/s 753 mmHg 93%
    18:00 +15°C° 1.1 mm 2 m/s 753 mmHg 92%
    19:00 +15°C° 1.1 mm 2 m/s 753 mmHg 92%
    20:00 +15°C° 1.1 mm 2 m/s 752 mmHg 91%
    21:00 +15°C° 0.2 mm 2 m/s 752 mmHg 91%
    22:00 +15°C° 0.2 mm 2 m/s 752 mmHg 91%
    23:00 +15°C° 0.2 mm 2 m/s 752 mmHg 91%

    23 Outubro, Terça-feira

    Tempo Temperatura Precipitação Vento Pressão Humidade
    00:00 +15°C° 0 mm 2 m/s 752 mmHg 91%
    01:00 +14°C° 0 mm 3 m/s 752 mmHg 92%
    02:00 +14°C° 0 mm 3 m/s 752 mmHg 92%
    03:00 +13°C° 0 mm 3 m/s 752 mmHg 93%
    04:00 +13°C° 0 mm 4 m/s 752 mmHg 94%
    05:00 +13°C° 0 mm 4 m/s 752 mmHg 95%
    06:00 +13°C° 0 mm 4 m/s 752 mmHg 92%
    07:00 +13°C° 0 mm 4 m/s 752 mmHg 90%
    08:00 +14°C° 0 mm 4 m/s 753 mmHg 87%
    09:00 +14°C° 0 mm 4 m/s 753 mmHg 83%
    10:00 +15°C° 0 mm 4 m/s 753 mmHg 78%
    11:00 +17°C° 0 mm 4 m/s 753 mmHg 74%
    12:00 +17°C° 0 mm 4 m/s 753 mmHg 72%
    13:00 +17°C° 0 mm 4 m/s 753 mmHg 71%
    14:00 +17°C° 0 mm 4 m/s 753 mmHg 69%
    15:00 +17°C° 0 mm 3 m/s 753 mmHg 71%
    16:00 +16°C° 0 mm 3 m/s 753 mmHg 73%
    17:00 +16°C° 0 mm 3 m/s 753 mmHg 75%
    18:00 +14°C° 0 mm 3 m/s 753 mmHg 78%
    19:00 +15°C° 0 mm 2 m/s 753 mmHg 80%
    20:00 +14°C° 0 mm 2 m/s 753 mmHg 82%
    21:00 +14°C° 0 mm 2 m/s 753 mmHg 84%
    22:00 +13°C° 0 mm 2 m/s 753 mmHg 85%
    23:00 +13°C° 0 mm 2 m/s 753 mmHg 87%

    24 Outubro, Quarta-feira

    Tempo Temperatura Precipitação Vento Pressão Humidade
    00:00 +13°C° 0 mm 2 m/s 752 mmHg 87%
    01:00 +12°C° 0 mm 2 m/s 752 mmHg 88%
    02:00 +12°C° 0 mm 2 m/s 752 mmHg 88%
    03:00 +12°C° 0 mm 2 m/s 752 mmHg 88%
    04:00 +12°C° 0 mm 2 m/s 751 mmHg 88%
    05:00 +12°C° 0 mm 2 m/s 751 mmHg 88%
    06:00 +12°C° 0 mm 2 m/s 750 mmHg 85%
    07:00 +13°C° 0 mm 2 m/s 750 mmHg 82%
    08:00 +13°C° 0 mm 2 m/s 749 mmHg 80%
    09:00 +13°C° 0 mm 3 m/s 749 mmHg 76%
    10:00 +14°C° 0 mm 3 m/s 748 mmHg 72%
    11:00 +16°C° 0 mm 3 m/s 747 mmHg 67%
    12:00 +16°C° 1.2 mm 3 m/s 747 mmHg 73%
    13:00 +14°C° 1.2 mm 3 m/s 746 mmHg 78%
    14:00 +14°C° 1.2 mm 3 m/s 745 mmHg 83%
    15:00 +13°C° 1.7 mm 3 m/s 744 mmHg 86%
    16:00 +13°C° 1.7 mm 4 m/s 743 mmHg 88%
    17:00 +13°C° 1.7 mm 4 m/s 743 mmHg 91%
    18:00 +14°C° 1 mm 5 m/s 742 mmHg 90%
    19:00 +14°C° 1 mm 5 m/s 741 mmHg 90%
    20:00 +15°C° 1 mm 6 m/s 741 mmHg 89%
    21:00 +14°C° 0.2 mm 6 m/s 741 mmHg 90%
    22:00 +14°C° 0.2 mm 7 m/s 741 mmHg 91%
    23:00 +14°C° 0.2 mm 7 m/s 740 mmHg 91%
    Mostrar mais